| time (UTC) | temp C | wind direction | speed KPH | gust KPH | rain 1hr cm | rain 24hr cm | rain mn cm | humidity % | barometer mb |
| 20260503032534 | 8 | 0 | 0.0 | 8.0 | 0.00 | 0.08 | 0.00 | 80 | 1010.2 |
| 20260503032034 | 8 | 0 | 0.0 | 12.9 | 0.00 | 0.08 | 0.00 | 80 | 1010.1 |
| 20260503031541 | 8 | 0 | 1.6 | 12.9 | 0.00 | 0.08 | 0.00 | 79 | 1010.1 |
| 20260503031034 | 8 | 330 | 6.4 | 12.9 | 0.00 | 0.08 | 0.00 | 80 | 1009.9 |
| 20260503030534 | 7 | 360 | 1.6 | 11.3 | 0.00 | 0.08 | 0.00 | 80 | 1009.8 |
| 20260503030053 | 7 | 352 | 4.8 | 11.3 | 0.00 | 0.08 | 0.00 | 80 | 1009.8 |
| 20260503025533 | 7 | 44 | 4.8 | 11.3 | 0.00 | 0.08 | 0.00 | 79 | 1009.8 |
| 20260503025033 | 7 | 342 | 3.2 | 6.4 | 0.00 | 0.08 | 0.00 | 79 | 1009.8 |
| 20260503024548 | 7 | 27 | 0.0 | 4.8 | 0.00 | 0.08 | 0.00 | 79 | 1009.8 |
| 20260503024033 | 7 | 30 | 0.0 | 6.4 | 0.00 | 0.08 | 0.00 | 79 | 1009.7 |
| 20260503023535 | 7 | 44 | 1.6 | 9.7 | 0.00 | 0.08 | 0.00 | 80 | 1009.8 |
| 20260503023044 | 8 | 0 | 1.6 | 11.3 | 0.00 | 0.08 | 0.00 | 80 | 1009.7 |
| 20260503022534 | 7 | 4 | 4.8 | 11.3 | 0.00 | 0.08 | 0.00 | 80 | 1009.7 |
| 20260503022036 | 7 | 355 | 1.6 | 8.0 | 0.00 | 0.08 | 0.00 | 81 | 1009.6 |
| 20260503021544 | 7 | 58 | 1.6 | 9.7 | 0.00 | 0.08 | 0.00 | 82 | 1009.7 |
| 20260503021034 | 7 | 33 | 1.6 | 9.7 | 0.00 | 0.08 | 0.00 | 82 | 1009.6 |
| 20260503020534 | 7 | 357 | 3.2 | 8.0 | 0.00 | 0.08 | 0.00 | 81 | 1009.6 |
| 20260503020042 | 7 | 345 | 3.2 | 6.4 | 0.00 | 0.08 | 0.00 | 81 | 1009.7 |
| 20260503015533 | 7 | 355 | 1.6 | 6.4 | 0.00 | 0.08 | 0.00 | 82 | 1009.5 |
| 20260503015033 | 7 | 18 | 0.0 | 6.4 | 0.00 | 0.08 | 0.00 | 82 | 1009.6 |
| 20260503014549 | 7 | 8 | 0.0 | 6.4 | 0.00 | 0.08 | 0.00 | 82 | 1009.5 |
| 20260503014035 | 7 | 327 | 1.6 | 6.4 | 0.00 | 0.08 | 0.00 | 82 | 1009.6 |
| 20260503013534 | 7 | 0 | 1.6 | 6.4 | 0.00 | 0.08 | 0.00 | 82 | 1009.6 |
| 20260503013038 | 7 | 0 | 1.6 | 4.8 | 0.00 | 0.08 | 0.00 | 83 | 1009.6 |
| 20260503012535 | 7 | 0 | 0.0 | 3.2 | 0.00 | 0.08 | 0.00 | 84 | 1009.5 |
| 20260503012035 | 7 | 1 | 0.0 | 4.8 | 0.00 | 0.08 | 0.00 | 84 | 1009.7 |
| 20260503011545 | 7 | 0 | 0.0 | 6.4 | 0.00 | 0.08 | 0.00 | 85 | 1009.7 |
| 20260503011033 | 7 | 0 | 0.0 | 9.7 | 0.00 | 0.08 | 0.00 | 85 | 1009.8 |
| 20260503010534 | 7 | 360 | 3.2 | 11.3 | 0.00 | 0.08 | 0.00 | 85 | 1009.8 |
| 20260503010045 | 7 | 349 | 6.4 | 11.3 | 0.00 | 0.08 | 0.00 | 86 | 1009.8 |
| 20260503005537 | 7 | 348 | 8.0 | 11.3 | 0.00 | 0.08 | 0.00 | 87 | 1009.6 |
| 20260503005037 | 6 | 8 | 6.4 | 9.7 | 0.00 | 0.08 | 0.00 | 90 | 1009.6 |
| 20260503004605 | 6 | 345 | 4.8 | 8.0 | 0.00 | 0.08 | 0.00 | 91 | 1009.5 |
| 20260503004035 | 6 | 347 | 4.8 | 6.4 | 0.00 | 0.08 | 0.00 | 91 | 1009.5 |
| 20260503003534 | 6 | 332 | 3.2 | 4.8 | 0.00 | 0.08 | 0.00 | 91 | 1009.6 |
| 20260503003039 | 6 | 323 | 0.0 | 3.2 | 0.00 | 0.08 | 0.00 | 91 | 1009.5 |
| 20260503002535 | 6 | 0 | 0.0 | 3.2 | 0.00 | 0.08 | 0.00 | 91 | 1009.6 |
| 20260503002035 | 6 | 0 | 0.0 | 3.2 | 0.00 | 0.08 | 0.00 | 91 | 1009.6 |
| 20260503001538 | 6 | 348 | 1.6 | 3.2 | 0.00 | 0.08 | 0.00 | 91 | 1009.7 |
| 20260503001035 | 6 | 311 | 0.0 | 0.0 | 0.00 | 0.08 | 0.00 | 91 | 1009.9 |
| 20260503000533 | 6 | 0 | 0.0 | 0.0 | 0.00 | 0.08 | 0.00 | 90 | 1009.7 |
| 20260503000040 | 6 | 0 | 0.0 | 0.0 | 0.00 | 0.08 | 0.00 | 90 | 1009.6 |
| 20260502235536 | 6 | 0 | 0.0 | 0.0 | 0.00 | 0.08 | 0.00 | 90 | 1009.5 |
| 20260502235033 | 6 | 0 | 0.0 | 0.0 | 0.00 | 0.08 | 0.00 | 89 | 1009.5 |
| 20260502234545 | 7 | 0 | 0.0 | 0.0 | 0.00 | 0.08 | 0.00 | 89 | 1009.5 |
| 20260502234035 | 7 | 0 | 0.0 | 0.0 | 0.00 | 0.08 | 0.00 | 88 | 1009.5 |
| 20260502233533 | 7 | 0 | 0.0 | 0.0 | 0.00 | 0.08 | 0.00 | 88 | 1009.4 |
| 20260502233045 | 7 | 0 | 0.0 | 0.0 | 0.00 | 0.08 | 0.00 | 87 | 1009.3 |
| 20260502232533 | 7 | 0 | 0.0 | 0.0 | 0.00 | 0.08 | 0.00 | 87 | 1009.4 |
| 20260502232034 | 7 | 0 | 0.0 | 1.6 | 0.00 | 0.08 | 0.00 | 87 | 1009.5 |
| 20260502231543 | 7 | 0 | 0.0 | 1.6 | 0.00 | 0.08 | 0.00 | 86 | 1009.6 |
| 20260502231035 | 8 | 0 | 0.0 | 0.0 | 0.00 | 0.08 | 0.00 | 85 | 1009.7 |
| 20260502230534 | 8 | 0 | 0.0 | 1.6 | 0.00 | 0.08 | 0.00 | 85 | 1009.7 |
| 20260502230041 | 8 | 0 | 0.0 | 3.2 | 0.00 | 0.08 | 0.00 | 84 | 1009.7 |
| 20260502225534 | 8 | 339 | 0.0 | 3.2 | 0.00 | 0.08 | 0.00 | 83 | 1009.6 |
| 20260502225033 | 8 | 326 | 0.0 | 3.2 | 0.00 | 0.08 | 0.00 | 83 | 1009.9 |
| 20260502224535 | 8 | 325 | 0.0 | 1.6 | 0.00 | 0.08 | 0.00 | 84 | 1009.8 |
| 20260502224034 | 8 | 322 | 0.0 | 3.2 | 0.00 | 0.08 | 0.00 | 84 | 1009.8 |
| 20260502223534 | 8 | 319 | 0.0 | 3.2 | 0.00 | 0.08 | 0.00 | 84 | 1009.8 |
| 20260502223047 | 8 | 319 | 1.6 | 3.2 | 0.00 | 0.08 | 0.00 | 86 | 1010.0 |
| 20260502222533 | 8 | 307 | 0.0 | 1.6 | 0.00 | 0.08 | 0.00 | 85 | 1009.9 |
| 20260502222035 | 8 | 0 | 0.0 | 0.0 | 0.00 | 0.08 | 0.00 | 86 | 1009.9 |
| 20260502221544 | 8 | 0 | 0.0 | 0.0 | 0.00 | 0.08 | 0.00 | 86 | 1009.8 |
| 20260502221033 | 8 | 0 | 0.0 | 1.6 | 0.00 | 0.08 | 0.00 | 86 | 1009.8 |
| 20260502220533 | 8 | 0 | 0.0 | 1.6 | 0.00 | 0.08 | 0.00 | 85 | 1009.8 |
| 20260502220050 | 8 | 0 | 0.0 | 0.0 | 0.00 | 0.08 | 0.00 | 86 | 1009.9 |
| 20260502215533 | 8 | 0 | 0.0 | 0.0 | 0.00 | 0.08 | 0.08 | 85 | 1009.9 |
| 20260502215032 | 8 | 0 | 0.0 | 0.0 | 0.00 | 0.08 | 0.08 | 86 | 1009.9 |
| 20260502214547 | 8 | 0 | 0.0 | 1.6 | 0.00 | 0.08 | 0.08 | 87 | 1009.8 |
| 20260502214034 | 9 | 0 | 0.0 | 1.6 | 0.00 | 0.08 | 0.08 | 87 | 1009.8 |
| 20260502213534 | 9 | 0 | 0.0 | 0.0 | 0.00 | 0.08 | 0.08 | 86 | 1009.8 |
| 20260502213047 | 8 | 0 | 0.0 | 0.0 | 0.00 | 0.08 | 0.08 | 86 | 1009.9 |
| 20260502212534 | 9 | 0 | 0.0 | 1.6 | 0.00 | 0.08 | 0.08 | 86 | 1009.8 |
| 20260502212034 | 8 | 0 | 0.0 | 1.6 | 0.00 | 0.08 | 0.08 | 86 | 1009.8 |
| 20260502211546 | 9 | 0 | 0.0 | 1.6 | 0.00 | 0.08 | 0.08 | 87 | 1009.8 |
| 20260502211033 | 9 | 0 | 0.0 | 1.6 | 0.00 | 0.08 | 0.08 | 85 | 1009.8 |
| 20260502210533 | 9 | 334 | 0.0 | 0.0 | 0.00 | 0.08 | 0.08 | 84 | 1009.9 |
| 20260502210038 | 9 | 0 | 0.0 | 0.0 | 0.00 | 0.08 | 0.08 | 84 | 1009.8 |
| 20260502205534 | 9 | 0 | 0.0 | 0.0 | 0.00 | 0.08 | 0.08 | 82 | 1009.8 |
| 20260502205036 | 9 | 0 | 0.0 | 0.0 | 0.00 | 0.08 | 0.08 | 83 | 1009.7 |
| 20260502204545 | 9 | 0 | 0.0 | 0.0 | 0.00 | 0.08 | 0.08 | 82 | 1009.7 |
| 20260502204033 | 9 | 0 | 0.0 | 1.6 | 0.00 | 0.08 | 0.08 | 82 | 1009.7 |
| 20260502203532 | 10 | 0 | 0.0 | 8.0 | 0.00 | 0.08 | 0.08 | 79 | 1009.8 |
| 20260502203049 | 10 | 338 | 3.2 | 8.0 | 0.00 | 0.08 | 0.08 | 78 | 1009.7 |
| 20260502202534 | 10 | 355 | 4.8 | 8.0 | 0.00 | 0.08 | 0.08 | 79 | 1009.7 |
| 20260502202036 | 10 | 4 | 1.6 | 4.8 | 0.00 | 0.08 | 0.08 | 79 | 1009.8 |
| 20260502201539 | 10 | 330 | 0.0 | 1.6 | 0.00 | 0.08 | 0.08 | 80 | 1009.8 |
| 20260502201034 | 10 | 0 | 0.0 | 1.6 | 0.00 | 0.08 | 0.08 | 80 | 1009.8 |
| 20260502200534 | 10 | 0 | 0.0 | 0.0 | 0.00 | 0.08 | 0.08 | 80 | 1009.8 |
| 20260502200042 | 10 | 0 | 0.0 | 0.0 | 0.00 | 0.08 | 0.08 | 81 | 1010.0 |
| 20260502195535 | 10 | 0 | 0.0 | 1.6 | 0.00 | 0.08 | 0.08 | 82 | 1010.0 |
| 20260502195035 | 10 | 0 | 0.0 | 1.6 | 0.00 | 0.08 | 0.08 | 83 | 1009.9 |
| 20260502194545 | 10 | 0 | 0.0 | 0.0 | 0.00 | 0.08 | 0.08 | 81 | 1009.9 |
| 20260502194033 | 10 | 0 | 0.0 | 0.0 | 0.00 | 0.08 | 0.08 | 82 | 1009.9 |
| 20260502193534 | 10 | 0 | 0.0 | 0.0 | 0.00 | 0.08 | 0.08 | 82 | 1009.9 |
| 20260502193048 | 10 | 160 | 0.0 | 0.0 | 0.00 | 0.08 | 0.08 | 83 | 1009.9 |
| 20260502192537 | 10 | 0 | 0.0 | 0.0 | 0.00 | 0.08 | 0.08 | 84 | 1009.9 |
| 20260502192033 | 10 | 0 | 0.0 | 1.6 | 0.00 | 0.08 | 0.08 | 84 | 1010.0 |
| 20260502191546 | 10 | 0 | 0.0 | 1.6 | 0.00 | 0.08 | 0.08 | 83 | 1010.1 |
| 20260502191034 | 10 | 0 | 0.0 | 1.6 | 0.00 | 0.08 | 0.08 | 83 | 1010.0 |
| 20260502190533 | 10 | 229 | 0.0 | 1.6 | 0.00 | 0.08 | 0.08 | 84 | 1010.0 |
| 20260502190058 | 10 | 0 | 0.0 | 1.6 | 0.00 | 0.08 | 0.08 | 83 | 1010.0 |
| 20260502185557 | 10 | 0 | 0.0 | 1.6 | 0.00 | 0.08 | 0.08 | 81 | 1010.1 |
| 20260502185034 | 10 | 0 | 0.0 | 3.2 | 0.00 | 0.08 | 0.08 | 80 | 1010.0 |
| 20260502184549 | 10 | 0 | 0.0 | 3.2 | 0.00 | 0.08 | 0.08 | 79 | 1010.1 |
| 20260502184034 | 10 | 0 | 0.0 | 1.6 | 0.00 | 0.08 | 0.08 | 78 | 1010.0 |
| 20260502183534 | 10 | 0 | 0.0 | 3.2 | 0.00 | 0.08 | 0.08 | 80 | 1010.0 |
| 20260502183041 | 11 | 0 | 0.0 | 3.2 | 0.00 | 0.08 | 0.08 | 78 | 1010.0 |
| 20260502182534 | 11 | 99 | 0.0 | 1.6 | 0.00 | 0.08 | 0.08 | 79 | 1010.0 |
| 20260502182033 | 11 | 0 | 0.0 | 3.2 | 0.00 | 0.08 | 0.08 | 76 | 1010.1 |
| 20260502181545 | 11 | 0 | 0.0 | 4.8 | 0.00 | 0.08 | 0.08 | 78 | 1010.0 |
| 20260502181033 | 11 | 213 | 0.0 | 4.8 | 0.00 | 0.08 | 0.08 | 76 | 1010.0 |
| 20260502180533 | 11 | 224 | 3.2 | 4.8 | 0.00 | 0.08 | 0.08 | 74 | 1010.1 |
| 20260502164033 | 12 | 0 | 0.0 | 1.6 | 0.00 | 0.08 | 0.08 | 73 | 1010.4 |
| 20260502163535 | 12 | 0 | 0.0 | 1.6 | 0.00 | 0.08 | 0.08 | 72 | 1010.4 |
| 20260502163051 | 12 | 307 | 0.0 | 1.6 | 0.00 | 0.08 | 0.08 | 71 | 1010.4 |
| 20260502162533 | 12 | 0 | 0.0 | 6.4 | 0.03 | 0.08 | 0.08 | 73 | 1010.6 |
| 20260502162033 | 12 | 0 | 0.0 | 6.4 | 0.05 | 0.08 | 0.08 | 71 | 1010.5 |
| 20260502161544 | 12 | 336 | 0.0 | 4.8 | 0.08 | 0.08 | 0.08 | 84 | 1010.7 |
| 20260502161033 | 12 | 0 | 0.0 | 1.6 | 0.08 | 0.08 | 0.08 | 84 | 1010.7 |
| 20260502160533 | 12 | 0 | 0.0 | 3.2 | 0.08 | 0.08 | 0.08 | 83 | 1010.8 |
| 20260502152033 | 14 | 291 | 4.8 | 12.9 | 0.00 | 0.00 | 0.00 | 63 | 1010.9 |
| 20260502151542 | 15 | 269 | 4.8 | 16.1 | 0.00 | 0.00 | 0.00 | 58 | 1011.0 |
| 20260502151033 | 16 | 255 | 8.0 | 20.9 | 0.00 | 0.00 | 0.00 | 54 | 1011.0 |
| 20260502150533 | 16 | 233 | 11.3 | 20.9 | 0.00 | 0.00 | 0.00 | 51 | 1011.0 |
| 20260502130533 | 18 | 215 | 8.0 | 17.7 | 0.00 | 0.00 | 0.00 | 41 | 1011.0 |
| 20260502123533 | 18 | 228 | 12.9 | 20.9 | 0.00 | 0.00 | 0.00 | 40 | 1011.3 |
| 20260502123045 | 18 | 215 | 11.3 | 17.7 | 0.00 | 0.00 | 0.00 | 44 | 1011.4 |
| 20260502122534 | 18 | 208 | 12.9 | 19.3 | 0.00 | 0.00 | 0.00 | 43 | 1011.4 |
| 20260502122034 | 17 | 217 | 14.5 | 20.9 | 0.00 | 0.00 | 0.00 | 43 | 1011.3 |
| 20260502121555 | 17 | 236 | 16.1 | 24.1 | 0.00 | 0.00 | 0.00 | 43 | 1011.4 |
| 20260502121037 | 17 | 211 | 14.5 | 24.1 | 0.00 | 0.00 | 0.00 | 43 | 1011.5 |
| 20260502120533 | 17 | 218 | 17.7 | 24.1 | 0.00 | 0.00 | 0.00 | 41 | 1011.5 |
| 20260502115537 | 18 | 239 | 19.3 | 24.1 | 0.00 | 0.00 | 0.00 | 39 | 1011.6 |
| 20260502115034 | 19 | 246 | 17.7 | 24.1 | 0.00 | 0.00 | 0.00 | 40 | 1011.6 |
| 20260502114548 | 18 | 219 | 16.1 | 22.5 | 0.00 | 0.00 | 0.00 | 39 | 1011.7 |
| 20260502114034 | 18 | 209 | 14.5 | 20.9 | 0.00 | 0.00 | 0.00 | 38 | 1011.6 |
| 20260502113535 | 17 | 233 | 12.9 | 17.7 | 0.00 | 0.00 | 0.00 | 39 | 1011.8 |
| 20260502113043 | 17 | 172 | 9.7 | 19.3 | 0.00 | 0.00 | 0.00 | 39 | 1011.8 |
| 20260502112532 | 17 | 232 | 12.9 | 19.3 | 0.00 | 0.00 | 0.00 | 39 | 1012.0 |
| 20260502112033 | 18 | 200 | 9.7 | 19.3 | 0.00 | 0.00 | 0.00 | 38 | 1012.1 |
| 20260502111553 | 18 | 254 | 6.4 | 24.1 | 0.00 | 0.00 | 0.00 | 40 | 1011.9 |
| 20260502111035 | 18 | 120 | 9.7 | 24.1 | 0.00 | 0.00 | 0.00 | 37 | 1012.1 |
| 20260502110534 | 18 | 218 | 14.5 | 24.1 | 0.00 | 0.00 | 0.00 | 39 | 1012.2 |
| 20260502110050 | 17 | 179 | 9.7 | 20.9 | 0.00 | 0.00 | 0.00 | 38 | 1012.3 |
| 20260502105536 | 17 | 215 | 11.3 | 20.9 | 0.00 | 0.00 | 0.00 | 40 | 1012.3 |
| 20260502105033 | 17 | 229 | 12.9 | 20.9 | 0.00 | 0.00 | 0.00 | 37 | 1012.4 |
| 20260502104543 | 17 | 225 | 11.3 | 20.9 | 0.00 | 0.00 | 0.00 | 37 | 1012.5 |
| 20260502104035 | 17 | 223 | 12.9 | 24.1 | 0.00 | 0.00 | 0.00 | 36 | 1012.6 |
| 20260502103533 | 17 | 248 | 12.9 | 37.0 | 0.00 | 0.00 | 0.00 | 35 | 1012.7 |
| 20260502103050 | 17 | 276 | 16.1 | 37.0 | 0.00 | 0.00 | 0.00 | 33 | 1012.7 |
| 20260502102535 | 18 | 225 | 16.1 | 37.0 | 0.00 | 0.00 | 0.00 | 34 | 1012.5 |
| 20260502102034 | 18 | 215 | 16.1 | 30.6 | 0.00 | 0.00 | 0.00 | 37 | 1012.6 |
| 20260502101604 | 18 | 237 | 16.1 | 30.6 | 0.00 | 0.00 | 0.00 | 37 | 1012.7 |
| 20260502101033 | 17 | 226 | 17.7 | 25.7 | 0.00 | 0.00 | 0.00 | 36 | 1012.7 |
| 20260502100533 | 18 | 162 | 14.5 | 25.7 | 0.00 | 0.00 | 0.00 | 37 | 1012.7 |
| 20260502091034 | 17 | 219 | 12.9 | 24.1 | 0.00 | 0.00 | 0.00 | 43 | 1012.9 |
| 20260502090534 | 16 | 240 | 16.1 | 22.5 | 0.00 | 0.00 | 0.00 | 43 | 1013.0 |
| 20260502071033 | 13 | 226 | 11.3 | 16.1 | 0.00 | 0.00 | 0.00 | 45 | 1014.2 |
| 20260502070535 | 12 | 210 | 11.3 | 16.1 | 0.00 | 0.00 | 0.00 | 46 | 1014.2 |
| 20260502070039 | 12 | 212 | 11.3 | 16.1 | 0.00 | 0.00 | 0.00 | 50 | 1014.3 |
| 20260502065533 | 12 | 227 | 11.3 | 14.5 | 0.00 | 0.00 | 0.00 | 50 | 1014.3 |
| 20260502065032 | 12 | 221 | 8.0 | 11.3 | 0.00 | 0.00 | 0.00 | 53 | 1014.3 |
| 20260502064542 | 11 | 224 | 8.0 | 12.9 | 0.00 | 0.00 | 0.00 | 54 | 1014.3 |
| 20260502064033 | 11 | 194 | 6.4 | 12.9 | 0.00 | 0.00 | 0.00 | 56 | 1014.4 |
| 20260502063533 | 11 | 219 | 6.4 | 9.7 | 0.00 | 0.00 | 0.00 | 57 | 1014.5 |
| 20260502063045 | 10 | 226 | 8.0 | 9.7 | 0.00 | 0.00 | 0.00 | 58 | 1014.6 |
| 20260502062534 | 10 | 220 | 6.4 | 9.7 | 0.00 | 0.00 | 0.00 | 60 | 1014.6 |
| 20260502062032 | 10 | 219 | 6.4 | 9.7 | 0.00 | 0.00 | 0.00 | 62 | 1014.6 |
| 20260502061546 | 10 | 239 | 6.4 | 9.7 | 0.00 | 0.00 | 0.00 | 62 | 1014.7 |
| 20260502061032 | 9 | 213 | 6.4 | 9.7 | 0.00 | 0.00 | 0.00 | 66 | 1014.6 |
| 20260502060533 | 9 | 206 | 3.2 | 6.4 | 0.00 | 0.00 | 0.00 | 67 | 1014.7 |
| 20260502060051 | 8 | 213 | 1.6 | 4.8 | 0.00 | 0.00 | 0.00 | 66 | 1014.8 |
| 20260502055533 | 8 | 229 | 1.6 | 4.8 | 0.00 | 0.00 | 0.00 | 68 | 1014.8 |
| 20260502055032 | 8 | 194 | 3.2 | 4.8 | 0.00 | 0.00 | 0.00 | 68 | 1014.9 |
| 20260502054547 | 8 | 212 | 0.0 | 1.6 | 0.00 | 0.00 | 0.00 | 68 | 1014.7 |
| 20260502054033 | 8 | 0 | 0.0 | 4.8 | 0.00 | 0.00 | 0.00 | 68 | 1014.9 |
| 20260502053535 | 8 | 0 | 1.6 | 4.8 | 0.00 | 0.00 | 0.00 | 68 | 1015.0 |
| 20260502053048 | 7 | 134 | 0.0 | 3.2 | 0.00 | 0.00 | 0.00 | 69 | 1015.0 |
| 20260502052533 | 7 | 0 | 0.0 | 1.6 | 0.00 | 0.00 | 0.00 | 70 | 1015.1 |
| 20260502052036 | 7 | 0 | 0.0 | 1.6 | 0.00 | 0.00 | 0.00 | 72 | 1015.1 |
| 20260502051557 | 6 | 0 | 0.0 | 0.0 | 0.00 | 0.00 | 0.00 | 74 | 1015.1 |
| 20260502051032 | 6 | 0 | 0.0 | 0.0 | 0.00 | 0.00 | 0.00 | 75 | 1015.1 |
| 20260502050536 | 6 | 0 | 0.0 | 0.0 | 0.00 | 0.00 | 0.00 | 75 | 1015.2 |
| 20260502050040 | 6 | 0 | 0.0 | 0.0 | 0.00 | 0.00 | 0.00 | 75 | 1015.2 |
| 20260502045535 | 6 | 0 | 0.0 | 0.0 | 0.00 | 0.00 | 0.00 | 75 | 1015.3 |
| 20260502045034 | 6 | 0 | 0.0 | 0.0 | 0.00 | 0.00 | 0.00 | 75 | 1015.3 |
| 20260502044540 | 6 | 0 | 0.0 | 0.0 | 0.00 | 0.00 | 0.00 | 75 | 1015.3 |
| 20260502044034 | 6 | 164 | 0.0 | 0.0 | 0.00 | 0.00 | 0.00 | 74 | 1015.4 |
| 20260502043533 | 6 | 0 | 0.0 | 0.0 | 0.00 | 0.00 | 0.00 | 74 | 1015.4 |
| 20260502043039 | 6 | 0 | 0.0 | 0.0 | 0.00 | 0.00 | 0.00 | 73 | 1015.3 |
| 20260502042533 | 6 | 0 | 0.0 | 0.0 | 0.00 | 0.00 | 0.00 | 73 | 1015.3 |
| 20260502042033 | 6 | 0 | 0.0 | 1.6 | 0.00 | 0.00 | 0.00 | 74 | 1015.4 |
| 20260502041543 | 6 | 0 | 0.0 | 1.6 | 0.00 | 0.00 | 0.00 | 74 | 1015.5 |
| 20260502041033 | 6 | 0 | 0.0 | 0.0 | 0.00 | 0.00 | 0.00 | 74 | 1015.5 |
| 20260502040535 | 6 | 0 | 0.0 | 0.0 | 0.00 | 0.00 | 0.00 | 74 | 1015.5 |
| 20260502040049 | 6 | 0 | 0.0 | 1.6 | 0.00 | 0.00 | 0.00 | 74 | 1015.6 |
| 20260502035533 | 6 | 0 | 0.0 | 1.6 | 0.00 | 0.00 | 0.00 | 74 | 1015.6 |
| 20260502035034 | 6 | 0 | 0.0 | 1.6 | 0.00 | 0.00 | 0.00 | 74 | 1015.6 |
| 20260502034546 | 6 | 0 | 0.0 | 1.6 | 0.00 | 0.00 | 0.00 | 74 | 1015.7 |
| 20260502034033 | 6 | 0 | 0.0 | 1.6 | 0.00 | 0.00 | 0.00 | 74 | 1015.9 |
| 20260502033533 | 6 | 120 | 0.0 | 3.2 | 0.00 | 0.00 | 0.00 | 73 | 1015.8 |
| 20260502033042 | 6 | 0 | 0.0 | 3.2 | 0.00 | 0.00 | 0.00 | 73 | 1015.9 |